Regional Weather Roundup
Issued by NWS

Home | Current Version | Previous Version | Text Only | Print | Product List | Glossary On
Versions: 1 2 3 4 5 6 7 8 9 10 11 12 13 14 15 16 17 18 19 20 21 22 23 24 25 26 27 28 29 30 31 32 33 34 35 36 37 38 39 40 41 42 43 44 45 46 47 48 49 50
000
ASUS42 KKEY 041110
RWRKEY

FLORIDA REGIONAL WEATHER ROUNDUP FOR THE FLORIDA KEYS
NATIONAL WEATHER SERVICE KEY WEST FLORIDA
700 AM EDT TUE AUG 04 2015

...SOUTH FLORIDA AND THE KEYS...

CITY           SKY/WX    TMP DP  RH WIND       PRES   REMARKS
FORT MYERS     PTCLDY    75  71  87 CALM      30.03R
SW REGIONAL AP PTCLDY    74  71  91 SE5       30.03R
NAPLES         PTCLDY    77  73  87 SE5       30.03R
MIAMI          MOCLDY    79  73  82 CALM      30.03R
WEST KENDALL   CLEAR     74  72  93 CALM      30.03R
HOMESTEAD      CLEAR     76  73  88 NW3       30.02R
MARATHON       CLOUDY    80  78  94 CALM      30.01S
BOCA CHICA NAS PTCLDY    82  73  74 E6        30.02R
KEY WEST INTL  PTCLDY    83  74  74 SE7       30.02R

...INTERNATIONAL WEATHER...

CITY           SKY/WX    TMP DP  RH WIND       PRES   REMARKS
NASSAU BAHAMAS PTCLDY    81  73  78 SE6       30.04R
CANCUN MEXICO  PTCLDY    81  77  89 E6        29.95R
COZUMEL MEXICO MOCLDY    73  73 100 CALM      29.95R

ADJACENT COASTAL WATERS...

STATION/POSITION TIME  SKY/WX   TEMP    WIND        PRES    WAVE
                                AIR SEA DIR/SP/G            HT/PER
                 (UTC)          (F)     (DEG/KT/KT) (MB)    (FT/S)
PULASKI SHOAL LI 1000            84     130/  9/ 10 1015.8R
SAND KEY         1050            84     120/  8/ 11 1016.4R
SOMBRERO KEY     1100            82     320/  2/  3 1017.2R
LONG KEY         1000            84 87  130/  9/ 10 1016.8R
MOLASSES REEF    1100            84 87  110/  8/ 10 1016.5R
FOWEY ROCKS      NOT AVBL

$$



USA.gov is the U.S. government's official web portal to all federal, state and local government web resources and services.